Regional Weather Roundup
Issued by NWS

Home | Current Version | Previous Version | Text Only | Print | Product List | Glossary Off
Versions: 1 2 3 4 5 6 7 8 9 10 11 12 13 14 15 16 17 18 19 20 21 22 23 24 25 26 27 28 29 30 31 32 33 34 35 36 37 38 39 40 41 42 43 44 45 46 47 48 49 50

540
ASUS45 KTFX 220010
RWRMT
MONTANA REGIONAL WEATHER ROUNDUP
NATIONAL WEATHER SERVICE GREAT FALLS MT
600 PM MDT SAT APR 21 2018

NOTE: "FAIR" INDICATES FEW OR NO CLOUDS BELOW 12000 FEET WITH NO
SIGNIFICANT WEATHER AND/OR OBSTRUCTIONS TO VISIBILITY.

MTZ001>007-043-220100-
WEST OF THE DIVIDE

CITY           SKY/WX    TMP DP  RH WIND       PRES   REMARKS
KALISPELL      CLOUDY    54  18  24 SW18G29   30.10R
MISSOULA       FAIR      59  22  24 W16G29    30.13S
BUTTE          FAIR      62  25  24 NW16G28   30.04F
MULLAN PASS    PTSUNNY   38  20  48 SW14G25   30.17R WCI  30
ANACONDA         N/A     57  25  28 MISG      30.05R
DEER LODGE       N/A     59  25  27 MISG      30.07S
HAMILTON         N/A     55  27  33 W12G21    30.12S
PLAINS           N/A     58  21  24 SW12      30.15R
RONAN            N/A     57  19  23 W16G24    30.15R
$$

MTZ008-052>055-220100-
SOUTHWEST MONTANA

CITY           SKY/WX    TMP DP  RH WIND       PRES   REMARKS
BOZEMAN        FAIR      70  26  19 W18G25    29.96F
DILLON         FAIR      66  23  19 W23G30    30.01F
ENNIS          SUNNY     66  23  19 W14       30.05F
W YELLOWSTONE  FAIR      55  25  30 SW16      30.12S
THREE FORKS      N/A     71  25  18 NW12      29.96S
TWIN BRIDGES     N/A     69  23  17 SW13      30.00
$$

MTZ009-010-012-014-046-048-049-054-220100-
EAST SLOPES AND CENTRAL MONTANA

CITY           SKY/WX    TMP DP  RH WIND       PRES   REMARKS
CUT BANK       FAIR      52  16  24 W35G41    29.98R
GREAT FALLS    FAIR      60  24  25 SW30G43   29.98R
HELENA         FAIR      62  29  28 W15G28    30.03R
AUGUSTA        FAIR      54  19  25 W25G31    29.98R
BOWMANS CRNR   FAIR      55  16  22 SW21G32   29.99R
CHOTEAU          N/A     57  18  21 SW14G21   30.03R
FAIRFIELD      FAIR      58  19  21 W25G36    29.97R
POWER          FAIR      57  19  22 SW22G30   29.99R
RAYNESFORD     FAIR      61  26  26 W21G35    29.97R
ULM            FAIR      61  26  26 W21       30.00R
WHITE SULPHUR    N/A     61  28  29 NW17G25   29.99R
$$

MTZ011-013-016-021-045-047-050-051-220100-
NORTH CENTRAL MONTANA

CITY           SKY/WX    TMP DP  RH WIND       PRES   REMARKS
HAVRE          CLOUDY    62  28  27 W33G44    29.92R
LEWISTOWN      FAIR      66  30  26 NW18G31   29.93S
N BAR RANCH    FAIR      66  27  22 SW8G16    29.97R
CHINOOK          N/A     63  28  27 MISG      29.92R
GEYSER         FAIR      62  28  27 NW30G41   29.94R
GRASS RANGE    FAIR      70  27  20 W13       29.89R
STANFORD       FAIR      62  28  28 NW26G32   29.95R
$$

MTZ017>020-022>027-061-062-220100-
NORTHEAST MONTANA

CITY           SKY/WX    TMP DP  RH WIND       PRES   REMARKS
GLASGOW        FAIR      75  35  23 SW13      29.83S
GLENDIVE       FAIR      67  38  34 S21       29.94F
JORDAN           N/A     72  37  28 S14       29.87S
MALTA          SUNNY     70  39  32 NW14      29.83R
SIDNEY         FAIR      69  39  33 S21G29    29.93F
WOLF POINT     FAIR      74  34  23 S15G25    29.86F
PLENTYWOOD       N/A     70  37  30 MISG      29.89F
POPLAR           N/A     72  34  25 MISG      29.88S
SCOBEY           N/A     71  32  23 S6        29.85
$$

MTZ028>42-056>058-220100-
SOUTHCENTRAL AND SOUTHEAST MONTANA

CITY           SKY/WX    TMP DP  RH WIND       PRES   REMARKS
BAKER          FAIR      63  37  38 S21       30.00F
BILLINGS       FAIR      71  31  22 SW10      29.92F
MILES CITY     FAIR      70  42  36 S13       29.91F
BIG TIMBER     SUNNY     70  25  18 W23G29    29.96R
EKALAKA          N/A     61  34  36 SE12      29.99
FORSYTH          N/A     72  30  21 W6        29.90F
HARLOWTON      FAIR      69  24  18 W22G37    29.95S
LAUREL           N/A     72  30  21 S12       29.93S
$$

REGIONAL REPORTS...DAKOTAS

CITY           SKY/WX    TMP DP  RH WIND       PRES   REMARKS
WILLISTON      FAIR      68  37  32 S17G28    29.95F
MINOT          FAIR      63  37  38 S24G31    30.05F
DICKINSON      FAIR      58  36  43 S23G30    30.04F
BEACH          FAIR      63  34  34 S24G31    30.01F
CROSBY         FAIR      64  39  39 S21G29    29.93F
TIOGA          FAIR      61  41  48 S29       29.98F
WATFORD CITY   FAIR      64  39  39 S25G31    29.97F
BISMARCK       FAIR      59  34  39 S23G31    30.15S
GRAND FORKS    FAIR      57  45  64 S8        30.24F
FARGO          FAIR      59  39  47 S10       30.25F
BUFFALO SD       N/A     58  36  43 SE23G30   30.00S
RAPID CITY     FAIR      50  37  61 S22       30.13F
$$

REGIONAL REPORTS...WYOMING/IDAHO/WASHINGTON

CITY           SKY/WX    TMP DP  RH WIND       PRES   REMARKS
GILLETTE       FAIR      58  37  45 S16       30.05S
SHERIDAN       FAIR      68  35  29 S5        29.97F
BUFFALO WY     FAIR      64  33  31 VRB7      30.03F
CODY           FAIR      69  26  20 W13G18    30.01S
YELLOWSTONE LA   N/A     51  22  31 W13       30.20S
IDAHO FALLS    FAIR      68  28  22 W12       30.08F
SALMON         FAIR      69  27  20 SW18G25   30.00S
BOISE          FAIR      69  34  27 N15       30.11F
SPOKANE        PTSUNNY   54  15  21 W23       30.20R
$$

REGIONAL REPORTS...ALBERTA

CITY           SKY/WX    TMP DP  RH WIND       PRES   REMARKS
CALGARY        MOSUNNY   52  12  20 W24G38    29.82R
EDMONTON       PTSUNNY   41  32  70 NW9       29.77R
FORT MCMURRAY  CLOUDY    55  28  35 VRB2      29.72F
HIGH LEVEL     LGT RAIN  43  39  87 CALM      29.81R
LLOYDMINSTER   LGT RAIN  45  43  93 N5        29.60F
MEDICINE HAT   MOSUNNY   57  18  21 W38G53    29.84R
PEACE RIVER    PTSUNNY   43  32  65 SW12      29.77R
PINCHER CREEK  SUNNY     45  27  49 W37G48    29.97R
WATERTON GATE    N/A     45  23  42 W24G36      N/A
$$

REGIONAL REPORTS...SASKATCHEWAN

CITY           SKY/WX    TMP DP  RH WIND       PRES   REMARKS
CORONACH         N/A     68  32  26 S17G23      N/A
ESTEVAN        PTSUNNY   64  39  39 S21G26    29.93F
MOOSE JAW        N/A     66  36  32 S13G18      N/A
PRINCE ALBERT  LGT RAIN  43  37  81 NE8       29.74F
REGINA         CLOUDY    64  43  45 S21G28    29.81F
ROCKGLEN         N/A     64  36  34 S17         N/A
SASKATOON      CLOUDY    59  39  47 SW7       29.69F
SWIFT CURRENT  CLOUDY    57  30  35 SW28G39   29.80R
VAL MARIE        N/A     63  34  34 W18G25      N/A
$$




USA.gov is the U.S. government's official web portal to all federal, state and local government web resources and services.